WATER LEVELS

Elbe

Guaranteed water level and forecast    Ústí nad Labem-Střekov

Guaranteed water level
Nad 275 cm
on 05.03.2024 more information
Forecast
295 cm
on 06.03.2024 07:00
Tendency
Slowly decreasing
on 06.03.2024 tendency methodology
Assumption
280 cm
on 07.03.2024 07:00
(Source data ČHMÚ a Povodí Labe)

Ústí nad Labem

Date and time (UTC) H (cm) Q (m³/s)
5. 3. 2024 14:10 303 430
5. 3. 2024 14:00 303 430
5. 3. 2024 13:00 303 430
5. 3. 2024 12:00 302 427
5. 3. 2024 11:00 302 427
5. 3. 2024 10:00 302 427
5. 3. 2024 09:00 303 430
5. 3. 2024 08:00 302 427
5. 3. 2024 07:00 303 430
5. 3. 2024 06:00 303 430
5. 3. 2024 05:00 305 435
5. 3. 2024 04:00 309 445
5. 3. 2024 03:00 310 447
5. 3. 2024 02:00 310 447

H - water level, Q - discharge
more information

Mělník

Date and time (UTC) H (cm) Q (m³/s)
5. 3. 2024 14:00 301 -
5. 3. 2024 13:00 300 -
5. 3. 2024 12:00 300 -
5. 3. 2024 11:00 301 -
5. 3. 2024 10:00 302 -
5. 3. 2024 09:00 303 -
5. 3. 2024 08:00 303 -
5. 3. 2024 07:00 302 360
5. 3. 2024 06:00 302 -
5. 3. 2024 05:00 302 -
5. 3. 2024 04:00 302 -
5. 3. 2024 03:00 301 -
5. 3. 2024 02:00 301 -

H - water level, Q - discharge
more information

Kostelec nad Labem

Date and time (UTC) H (cm) Q (m³/s)
5. 3. 2024 14:10 439 -
5. 3. 2024 14:00 439 167
5. 3. 2024 13:00 439 167
5. 3. 2024 12:00 440 166
5. 3. 2024 11:00 440 168
5. 3. 2024 10:00 440 168
5. 3. 2024 09:00 441 168
5. 3. 2024 08:00 439 168
5. 3. 2024 07:00 440 169
5. 3. 2024 06:00 440 167
5. 3. 2024 05:00 440 167
5. 3. 2024 04:00 440 167
5. 3. 2024 03:00 439 169
5. 3. 2024 02:00 439 167

H - water level, Q - discharge
more information

Přelouč

Date and time (UTC) H (cm) Q (m³/s)
5. 3. 2024 14:00 136 101
5. 3. 2024 13:00 136 101
5. 3. 2024 12:00 135 100
5. 3. 2024 11:00 135 100
5. 3. 2024 10:00 134 99
5. 3. 2024 09:00 134 99
5. 3. 2024 08:00 135 100
5. 3. 2024 07:00 139 105
5. 3. 2024 06:00 140 106
5. 3. 2024 05:00 140 106
5. 3. 2024 04:00 140 106
5. 3. 2024 03:00 140 106
5. 3. 2024 02:00 140 106

H - water level, Q - discharge
more information


Vltava

Praha-Chuchle

Date and time (UTC) H (cm) Q (m³/s)
5. 3. 2024 14:00 89 189
5. 3. 2024 13:00 90 194
5. 3. 2024 12:00 90 194
5. 3. 2024 11:00 88 184
5. 3. 2024 10:00 88 184
5. 3. 2024 09:00 90 194
5. 3. 2024 08:00 91 199
5. 3. 2024 07:00 91 199
5. 3. 2024 06:00 91 199
5. 3. 2024 05:00 91 199
5. 3. 2024 04:00 92 204
5. 3. 2024 03:00 92 204
5. 3. 2024 02:00 92 204

H - water level, Q - discharge
more information

VD Orlík

Date and time (UTC) H (m n. m.) Q (m³/s)
5. 3. 2024 14:00 337.91 0
5. 3. 2024 13:00 337.89 0
5. 3. 2024 12:00 337.87 0
5. 3. 2024 11:00 337.85 125
5. 3. 2024 10:00 337.86 151
5. 3. 2024 09:00 337.90 378
5. 3. 2024 08:00 337.97 421
5. 3. 2024 07:00 338.04 107
5. 3. 2024 06:00 338.01 0
5. 3. 2024 05:00 338.00 0
5. 3. 2024 04:00 337.98 0
5. 3. 2024 03:00 337.96 0
5. 3. 2024 02:00 337.94 0

H - water level, Q - outflow

VD Kořensko

Date and time (UTC) H (m n. m.) Q (m³/s)
5. 3. 2024 14:00 352.51 -
5. 3. 2024 13:00 352.50 -
5. 3. 2024 12:00 352.52 -
5. 3. 2024 11:00 352.53 52
5. 3. 2024 10:00 352.54 -
5. 3. 2024 09:00 352.54 50
5. 3. 2024 08:00 352.52 50
5. 3. 2024 07:00 352.51 -
5. 3. 2024 06:00 352.51 -
5. 3. 2024 05:00 352.52 -
5. 3. 2024 04:00 352.53 47
5. 3. 2024 03:00 352.53 -
5. 3. 2024 02:00 352.54 -

H - water level, Q - outflow

České Budějovice

Date and time (UTC) H (cm) Q (m³/s)
5. 3. 2024 14:00 105 17.6
5. 3. 2024 13:00 104 18
5. 3. 2024 12:00 105 19
5. 3. 2024 11:00 103 17
5. 3. 2024 10:00 104 17
5. 3. 2024 09:00 105 18
5. 3. 2024 08:00 105 17
5. 3. 2024 07:00 104 18
5. 3. 2024 06:00 104 17
5. 3. 2024 05:00 104 18
5. 3. 2024 04:00 104 18
5. 3. 2024 03:00 104 18
5. 3. 2024 02:00 104 18

H - water level, Q - discharge
more information


Morava

Strážnice

Date and time (UTC) H (cm) Q (m³/s)
5. 3. 2024 14:00 261 97.7
5. 3. 2024 13:00 261 98
5. 3. 2024 12:00 262 98
5. 3. 2024 11:00 262 98
5. 3. 2024 10:00 263 99
5. 3. 2024 09:00 263 99
5. 3. 2024 08:00 263 99
5. 3. 2024 07:00 264 99
5. 3. 2024 06:00 264 99
5. 3. 2024 05:00 265 100
5. 3. 2024 04:00 265 100
5. 3. 2024 03:00 265 100
5. 3. 2024 02:00 266 100

H - water level, Q - discharge
more information

Kroměříž

Date and time (UTC) H (cm) Q (m³/s)
5. 3. 2024 14:00 215 80.3
5. 3. 2024 13:00 216 81
5. 3. 2024 12:00 216 81
5. 3. 2024 11:00 216 81
5. 3. 2024 10:00 217 82
5. 3. 2024 09:00 217 82
5. 3. 2024 08:00 218 83
5. 3. 2024 07:00 218 83
5. 3. 2024 06:00 218 83
5. 3. 2024 05:00 219 84
5. 3. 2024 04:00 219 84
5. 3. 2024 03:00 219 84
5. 3. 2024 02:00 219 84

H - water level, Q - discharge
more information
Source data
Labe Basin Vltava Basin Povodí Moravy ČHMÚ
Po vodě ekologicky, levně a v pohodě
backgroung on backgroung off